This is the latest recevied weather packets stored in our database for station/object W8LMG. If no packets are shown the sender has not sent any weather packets the latest 10 day(s).
| Time | Temp. | Humidity | Pressure | Rain* | Wind** | Luminosity | Snow |
|---|---|---|---|---|---|---|---|
| 1777792265 | 1.11° C | 82% | 1015.6 hPa | 0 mm | - | 0 W/m² | - |
| 1777791962 | 1.11° C | 83% | 1015.7 hPa | 0 mm | - | 0 W/m² | - |
| 1777791660 | 1.11° C | 83% | 1015.7 hPa | 0 mm | - | 0 W/m² | - |
| 1777791357 | 1.67° C | 81% | 1015.7 hPa | 0 mm | - | 0 W/m² | - |
| 1777791054 | 1.67° C | 80% | 1015.5 hPa | 0 mm | - | 0 W/m² | - |
| 1777790752 | 1.67° C | 83% | 1015.7 hPa | 0 mm | - | 0 W/m² | - |
| 1777790448 | 1.67° C | 84% | 1015.6 hPa | 0 mm | - | 0 W/m² | - |
| 1777790146 | 1.67° C | 84% | 1015.6 hPa | 0 mm | - | 0 W/m² | - |
| 1777789844 | 2.22° C | 84% | 1015.6 hPa | 0 mm | - | 0 W/m² | - |
| 1777789542 | 2.22° C | 84% | 1015.4 hPa | 0 mm | - | 0 W/m² | - |
| 1777789241 | 2.22° C | 84% | 1015.4 hPa | 0 mm | - | 0 W/m² | - |
| 1777788937 | 2.22° C | 84% | 1015.8 hPa | 0 mm | - | 0 W/m² | - |
| 1777788634 | 2.22° C | 85% | 1015.7 hPa | 0 mm | - | 0 W/m² | - |
| 1777788333 | 2.22° C | 86% | 1015.8 hPa | 0 mm | - | 0 W/m² | - |
| 1777788029 | 2.22° C | 84% | 1015.8 hPa | 0 mm | - | 0 W/m² | - |
| 1777787725 | 2.22° C | 83% | 1015.7 hPa | 0 mm | - | 0 W/m² | - |
| 1777787420 | 2.78° C | 82% | 1015.7 hPa | 0 mm | - | 0 W/m² | - |
| 1777787116 | 2.78° C | 82% | 1015.8 hPa | 0 mm | - | 0 W/m² | - |
| 1777786814 | 2.78° C | 81% | 1015.7 hPa | 0 mm | - | 0 W/m² | - |
| 1777786512 | 2.78° C | 82% | 1015.6 hPa | 0 mm | - | 0 W/m² | - |
| 1777786209 | 2.78° C | 81% | 1015.5 hPa | 0 mm | - | 0 W/m² | - |
| 1777785906 | 2.78° C | 82% | 1015.5 hPa | 0 mm | - | 0 W/m² | - |
| 1777785602 | 2.22° C | 82% | 1015.5 hPa | 0 mm | - | 0 W/m² | - |
| 1777785298 | 2.22° C | 82% | 1015.5 hPa | 0 mm | - | 0 W/m² | - |
| 1777784995 | 2.22° C | 79% | 1015.5 hPa | 0 mm | - | 0 W/m² | - |
* Rain latest hour (hover to see other rain measurements)
** Current wind speed in m/s (hover to see current wind gust speed)